Regional Weather Roundup
Issued by NWS

Home | Current Version | Previous Version | Text Only | Print | Product List | Glossary Off
Versions: 1 2 3 4 5 6 7 8 9 10 11 12 13 14 15 16 17 18 19 20 21 22 23 24 25 26 27 28 29 30 31 32 33 34 35 36 37 38 39 40 41 42 43 44 45 46 47 48 49 50

000
ASUS43 KIND 261409
RWRIN

WEATHER ROUNDUP FOR INDIANA
NATIONAL WEATHER SERVICE INDIANAPOLIS IN
1000 AM EDT FRI AUG 26 2016

NOTE: "FAIR" INDICATES FEW OR NO CLOUDS BELOW 12,000 FEET WITH NO
SIGNIFICANT WEATHER AND/OR OBSTRUCTIONS TO VISIBILITY.

* - STATION DOES NOT REPORT WEATHER SUCH AS PRECIPITATION OR FOG.

+ - STATION NOT QUALITY CONTROLLED BY THE NATIONAL WEATHER SERVICE.
    USE DATA WITH CAUTION...ESPECIALLY DEWPOINT AND RELATIVE
    HUMIDITY OBSERVATIONS.

INZ001>003-010>013-019-020-261500-
NORTHWEST INDIANA

CITY           SKY/WX    TMP DP  RH WIND       PRES   REMARKS
GARY /AIRPORT/ PTSUNNY   75  70  83 NE6       30.18R
KNOX *+        MOSUNNY   70  61  73 NE5       30.16S
LA PORTE +     MOSUNNY   76  74  92 E3        30.18R
MICHIGAN CITY+ MOSUNNY   72  72 100 CALM      30.18R
MONTICELLO +   SUNNY     74  66  74 CALM      30.15R
RENSSELAER +   PTSUNNY   72  70  94 NE5       30.16S
VALPARAISO     PTSUNNY   72  68  87 CALM      30.18R

$$

LMZ046-743>745-261500-
SOUTHERN LAKE MICHIGAN

STATION/POSITION TIME  TEMP    WIND        PRES    WAVE
                       AIR SEA DIR/SP/G            HT
                 (UTC) (F)     (DEG/KT/KT) (MB)    (FT)
BURNS HARBOR     1305   73      30/  8/ 11 1021.3S
MICHIGAN CITY    1300   73      10/  8/  9   N/A
5NW MICH CITY    1400   74 74   50/  6/  8   N/A     2

$$

INZ004-005-014>016-021>024-261500-
NORTH CENTRAL INDIANA

CITY           SKY/WX    TMP DP  RH WIND       PRES   REMARKS
ELKHART        CLOUDY    72  66  83 CALM      30.18R
GOSHEN         CLOUDY    70  67  90 CALM      30.17R FOG
LOGANSPORT +   MOSUNNY   72  72 100 N3        30.16S
PERU/GRISSOM   SUNNY     75  70  85 E7        30.14R
ROCHESTER +    PTSUNNY   73  73 100 NE3       30.17S
SOUTH BEND     MOSUNNY   74  67  78 CALM      30.18R
WARSAW +       CLOUDY    72  72 100 NE3       30.16F

$$

INZ006>009-017-018-025>027-261500-
NORTHEAST INDIANA

CITY           SKY/WX    TMP DP  RH WIND       PRES   REMARKS
ANGOLA *+      PTSUNNY   73  70  88 CALM      30.17R
AUBURN +       PTSUNNY   73  64  73 CALM      30.18R
FORT WAYNE     CLOUDY    74  68  81 E5        30.16S
HUNTINGTON +   CLOUDY   N/A N/A N/A E6        30.15F

$$

INZ028-029-035-036-043>045-051>053-261500-
WEST CENTRAL INDIANA

CITY           SKY/WX    TMP DP  RH WIND       PRES   REMARKS
CRAWFORDSVL +  MOSUNNY   73  73 100 E5        30.14F
GREENCASTLE +  SUNNY     77  73  88 SE5       30.14F
LAFAYETTE      CLOUDY    73  72  96 NE6       30.14R
TERRE HAUTE    SUNNY     80  73  79 E7        30.12F

$$

INZ030>032-037>040-046>048-054>057-064-065-261500-
CENTRAL INDIANA

CITY           SKY/WX    TMP DP  RH WIND       PRES   REMARKS
ANDERSON       MOSUNNY   73  73 100 CALM      30.06F
COLUMBUS       SUNNY     77  77 100 CALM      30.14S
INDIANAPOLIS   MOSUNNY   76  68  76 E7        30.13F
-EAGLE CREEK   SUNNY     76  69  79 E3        30.14S
MARION +       CLOUDY    70  70 100 E5        30.16R FOG
MT COMFORT *+  CLOUDY    70  68  94 SE5       30.16S
SHELBYVILLE    LGT RAIN  74  68  81 E6        30.15S
ZIONSVILLE +   MOSUNNY   74  72  96 SE6       30.16S

$$

INZ033-034-041-042-049-050-058-059-261500-
EAST CENTRAL INDIANA

CITY           SKY/WX    TMP DP  RH WIND       PRES   REMARKS
MUNCIE         LGT RAIN  75  71  87 CALM      30.16F

$$

INZ060-061-067>069-081>083-085>088-261500-
SOUTHWEST INDIANA

CITY           SKY/WX    TMP DP  RH WIND       PRES   REMARKS
EVANSVILLE     MOSUNNY   83  75  77 CALM      30.13S
HUNTINGBURG *+ MOSUNNY   81  75  83 CALM      30.13S
WASHINGTON +   SUNNY     80  76  88 MISG      30.12S

$$

INZ062-063-066-070>080-084-089>092-261500-
SOUTH CENTRAL AND SOUTHEAST INDIANA

CITY           SKY/WX    TMP DP  RH WIND       PRES   REMARKS
BLOOMINGTON    SUNNY     83  73  72 N5        30.14S
MADISON *+     SUNNY     81  70  69 CALM      30.17F

$$





USA.gov is the U.S. government's official web portal to all federal, state and local government web resources and services.